Regional Weather Roundup
Issued by NWS

Home | Current Version | Previous Version | Graphics & Text | Print | Product List | Glossary On
Versions: 1 2 3 4 5 6 7 8 9 10 11 12 13 14 15 16 17 18 19 20 21 22 23 24 25 26 27 28 29 30 31 32 33 34 35 36 37 38 39 40 41 42 43 44 45 46 47 48 49 50
000
ASUS43 KLMK 161602
RWRKY
KENTUCKY REGIONAL WEATHER ROUNDUP
NATIONAL WEATHER SERVICE LOUISVILLE KY
1200 PM EDT TUE SEP 16 2014

NOTE "FAIR" INDICATES FEW OR NO CLOUDS BELOW 12,000 FEET
WITH NO SIGNIFICANT WEATHER AND/OR OBSTRUCTIONS TO VISIBILITY.

KYZ001>023-026-027-061>063-070>075-161700-
WESTERN AND SOUTH CENTRAL KENTUCKY

CITY           SKY/WX    TMP DP  RH WIND       PRES   REMARKS
PADUCAH        PTSUNNY   66  55  67 N12       30.17F
HENDERSON      CLOUDY    61  54  77 N8        30.19S
OWENSBORO      CLOUDY    63  57  80 N8        30.18S
HOPKINSVILLE   CLOUDY    63  60  91 N12       30.17S
BOWLING GREEN  CLOUDY    65  60  84 NW7       30.15F
GLASGOW        CLOUDY    65  59  81 N5        30.14S
$$

KYZ024-025-028>034-038-045-046-053-161700-
NORTH CENTRAL KENTUCKY

CITY           SKY/WX    TMP DP  RH WIND       PRES   REMARKS
LOUISVILLE/SDF PTSUNNY   66  57  72 N7        30.15S
LOUISVILLE/LOU CLOUDY    64  56  75 N3        30.16S
FORT KNOX      CLOUDY    63  56  80 VRB7      30.15S
$$

KYZ035>037-039>044-047>052-055>060-089>105-161700-
NORTHEAST KENTUCKY

CITY           SKY/WX    TMP DP  RH WIND       PRES   REMARKS
LEXINGTON      CLOUDY    63  58  83 N8        30.15R
COVINGTON      CLOUDY    58  51  78 N9        30.16S
FRANKFORT      CLOUDY    61  57  87 N6        30.15S
$$

KYZ054-064>069-076>088-106>120-161700-
SOUTHEAST KENTUCKY

CITY           SKY/WX    TMP DP  RH WIND       PRES   REMARKS
JACKSON        LGT RAIN  63  61  93 CALM      30.12S FOG
LONDON         LGT RAIN  66  62  87 W7        30.12F
SOMERSET       NOT AVBL
MIDDLESBORO    CLOUDY    70  64  81 W3        30.12S
MONTICELLO     CLOUDY    67  65  93 CALM      30.14F FOG
$$




USA.gov is the U.S. government's official web portal to all federal, state and local government web resources and services.